Weather History for Chicago Midway, IL

Change the Weather History Date:

Friday, May 27, 2011

  Actual Average Record
Temperature  
Mean Temperature 50 °F 64 °F  
Max Temperature 57 °F 74 °F 97 °F (2012)
Min Temperature 43 °F 55 °F 35 °F (1961)
Degree Days  
Heating Degree Days 15 4  
Month to date heating degree days 176  
Since 1 July heating degree days 5947  
Cooling Degree Days 0 3  
Month to date cooling degree days 48  
Year to date cooling degree days 61  
Moisture  
Dew Point 40 °F    
Average Humidity 68    
Maximum Humidity 82    
Minimum Humidity 57    
Precipitation  
Precipitation 0.01 in 0.13 in 1.49 in (1973)
Month to date precipitation 3.55  
Year to date precipitation 13.91  
Sea Level Pressure  
Sea Level Pressure 29.96 in    
Wind  
Wind Speed 9 mph (NE)    
Max Wind Speed 14 mph    
Max Gust Speed -    
Visibility 10 miles    
Events Rain    
T = Trace of Precipitation, MM = Missing Value Source: NWS Daily Summary

Daily Weather History Graph

Daily Weather History Graph

Search for Another Location

Airport:

Trip Planner

Search our weather history database for the weather conditions in past years. The results will help you decide how hot, cold, wet, or windy it might be!

Date:

Astronomy

May. 27, 2011 Rise Set
Actual Time 5:21 AM CDT 8:15 PM CDT
Civil Twilight 4:48 AM CDT 8:48 PM CDT
Nautical Twilight 4:06 AM CDT 9:30 PM CDT
Astronomical Twilight 3:18 AM CDT 10:18 PM CDT
Moon 2:14 AM CDT (5/27) 3:28 PM CDT (5/27)
Length of Visible Light 15h 59m
Length of Day
14h 53m
Waning Crescent, 24% of the Moon is Illuminated
May 27
Waning Crescent
Jun 1
New
Jun 8
First Quarter
Jun 15
Full
Jun 23
Last Quarter

Hourly Weather History & Observations

Time (CDT) Temp. Windchill Dew Point Humidity Pressure Visibility Wind Dir Wind Speed Gust Speed Precip Events Conditions
12:51 AM 43.0 °F 37.7 °F 36.0 °F 76% 30.00 in 10.0 mi North 9.2 mph - N/A   Partly Cloudy
1:51 AM 43.0 °F 36.8 °F 37.0 °F 80% 29.99 in 10.0 mi North 11.5 mph - N/A   Partly Cloudy
2:51 AM 43.0 °F 37.7 °F 37.0 °F 80% 29.99 in 10.0 mi North 9.2 mph - N/A   Partly Cloudy
3:51 AM 43.0 °F 37.2 °F 37.9 °F 82% 30.01 in 10.0 mi North 10.4 mph - N/A   Partly Cloudy
4:51 AM 43.0 °F 38.8 °F 37.9 °F 82% 30.03 in 10.0 mi North 6.9 mph - N/A   Partly Cloudy
5:41 AM 44.6 °F 40.2 °F 37.4 °F 76% 30.00 in 10.0 mi North 8.1 mph - N/A   Mostly Cloudy
5:51 AM 44.1 °F 39.5 °F 37.9 °F 79% 30.03 in 10.0 mi North 8.1 mph - N/A   Mostly Cloudy
6:51 AM 46.0 °F 41.0 °F 39.0 °F 76% 30.02 in 10.0 mi NNE 10.4 mph - N/A   Mostly Cloudy
7:51 AM 50.0 °F - 39.9 °F 68% 30.01 in 10.0 mi NNE 8.1 mph - N/A   Mostly Cloudy
8:51 AM 52.0 °F - 39.0 °F 61% 30.01 in 10.0 mi NNE 13.8 mph - N/A   Mostly Cloudy
9:51 AM 52.0 °F - 39.0 °F 61% 29.99 in 10.0 mi NE 12.7 mph - N/A   Mostly Cloudy
10:43 AM 53.6 °F - 39.2 °F 58% 29.98 in 10.0 mi NNE 9.2 mph - N/A   Mostly Cloudy
10:51 AM 54.0 °F - 39.9 °F 59% 29.99 in 10.0 mi NNE 8.1 mph - N/A   Mostly Cloudy
11:51 AM 54.0 °F - 39.9 °F 59% 29.99 in 10.0 mi NNE 6.9 mph - N/A   Mostly Cloudy
12:51 PM 55.0 °F - 39.9 °F 57% 29.99 in 10.0 mi ENE 9.2 mph - N/A   Mostly Cloudy
1:51 PM 57.0 °F - 42.1 °F 57% 29.97 in 10.0 mi NNE 12.7 mph - N/A   Mostly Cloudy
2:51 PM 57.0 °F - 42.1 °F 57% 29.95 in 10.0 mi NE 10.4 mph - N/A   Mostly Cloudy
3:45 PM 57.2 °F - 42.8 °F 59% 29.91 in 10.0 mi East 12.7 mph - N/A   Mostly Cloudy
3:51 PM 55.9 °F - 42.1 °F 60% 29.91 in 10.0 mi ENE 12.7 mph - N/A   Mostly Cloudy
4:51 PM 52.0 °F - 41.0 °F 66% 29.93 in 10.0 mi ENE 9.2 mph - N/A   Overcast
5:51 PM 52.0 °F - 39.9 °F 63% 29.94 in 10.0 mi ENE 5.8 mph - N/A   Overcast
6:51 PM 53.1 °F - 41.0 °F 64% 29.92 in 10.0 mi ENE 4.6 mph - N/A   Overcast
7:51 PM 52.0 °F - 39.9 °F 63% 29.91 in 10.0 mi Variable 5.8 mph - N/A   Overcast
8:51 PM 52.0 °F - 41.0 °F 66% 29.92 in 10.0 mi Calm Calm - N/A   Overcast
9:51 PM 50.0 °F - 42.1 °F 74% 29.90 in 10.0 mi East 8.1 mph - 0.01 in Rain Light Rain
10:51 PM 50.0 °F - 43.0 °F 77% 29.88 in 10.0 mi East 6.9 mph - 0.00 in Rain Light Rain
11:51 PM 51.1 °F - 45.0 °F 80% 29.87 in 10.0 mi Calm Calm - 0.00 in Rain Light Rain